Year,Month,Day,Hour,Minute,Value (Times are PST for temperature in C)
2009,09,13,00,00,15.00
2009,09,13,00,01,15.00
2009,09,13,00,02,15.00
2009,09,13,00,03,15.00
2009,09,13,00,04,15.00
2009,09,13,00,05,15.00
2009,09,13,00,06,15.00
2009,09,13,00,07,15.00
2009,09,13,00,08,15.00
2009,09,13,00,09,15.00
2009,09,13,00,10,15.00
2009,09,13,00,11,15.00
2009,09,13,00,12,15.00
2009,09,13,00,13,15.00
2009,09,13,00,14,15.00
2009,09,13,00,15,15.00
2009,09,13,00,16,15.00
2009,09,13,00,17,15.00
2009,09,13,00,18,15.00
2009,09,13,00,19,15.00
2009,09,13,00,20,15.00
2009,09,13,00,21,15.00
2009,09,13,00,22,15.00
2009,09,13,00,23,15.00
2009,09,13,00,24,15.00
2009,09,13,00,25,15.00
2009,09,13,00,26,15.00
2009,09,13,00,27,15.00
2009,09,13,00,28,15.00
2009,09,13,00,29,15.00
2009,09,13,00,30,15.00
2009,09,13,00,31,15.00
2009,09,13,00,32,15.00
2009,09,13,00,33,15.00
2009,09,13,00,34,15.00
2009,09,13,00,35,15.00
2009,09,13,00,36,15.00
2009,09,13,00,37,15.00
2009,09,13,00,38,15.00
2009,09,13,00,39,15.00
2009,09,13,00,40,15.00
2009,09,13,00,41,15.00
2009,09,13,00,42,15.00
2009,09,13,00,43,15.00
2009,09,13,00,44,15.00
2009,09,13,00,45,15.00
2009,09,13,00,46,15.00
2009,09,13,00,47,15.00
2009,09,13,00,48,15.00
2009,09,13,00,49,15.00
2009,09,13,00,50,15.00
2009,09,13,00,51,15.00
2009,09,13,00,52,15.00
2009,09,13,00,53,15.00
2009,09,13,00,54,15.00
2009,09,13,00,55,15.00
2009,09,13,00,56,15.00
2009,09,13,00,57,15.00
2009,09,13,00,58,15.00
2009,09,13,00,59,15.00
2009,09,13,01,00,15.00
2009,09,13,01,01,15.00
2009,09,13,01,02,15.00
2009,09,13,01,03,15.00
2009,09,13,01,04,15.00
2009,09,13,01,05,15.00
2009,09,13,01,06,15.00
2009,09,13,01,07,15.00
2009,09,13,01,08,15.00
2009,09,13,01,09,15.00
2009,09,13,01,10,15.00
2009,09,13,01,11,15.00
2009,09,13,01,12,15.00
2009,09,13,01,13,15.00
2009,09,13,01,14,15.00
2009,09,13,01,15,15.00
2009,09,13,01,16,15.00
2009,09,13,01,17,15.00
2009,09,13,01,18,15.00
2009,09,13,01,19,15.00
2009,09,13,01,20,15.00
2009,09,13,01,21,15.00
2009,09,13,01,22,15.00
2009,09,13,01,23,15.00
2009,09,13,01,24,15.00
2009,09,13,01,25,15.00
2009,09,13,01,26,15.00
2009,09,13,01,27,15.00
2009,09,13,01,28,15.00
2009,09,13,01,29,15.00
2009,09,13,01,30,15.00
2009,09,13,01,31,15.00
2009,09,13,01,32,15.00
2009,09,13,01,33,15.00
2009,09,13,01,34,15.00
2009,09,13,01,35,15.00
2009,09,13,01,36,14.90
2009,09,13,01,37,14.90
2009,09,13,01,38,14.90
2009,09,13,01,39,14.80
2009,09,13,01,40,14.80
2009,09,13,01,41,14.80
2009,09,13,01,42,14.80
2009,09,13,01,43,14.80
2009,09,13,01,44,14.80
2009,09,13,01,45,14.70
2009,09,13,01,46,14.70
2009,09,13,01,47,14.70
2009,09,13,01,48,14.70
2009,09,13,01,49,14.70
2009,09,13,01,50,14.60
2009,09,13,01,51,14.60
2009,09,13,01,52,14.60
2009,09,13,01,53,14.60
2009,09,13,01,54,14.60
2009,09,13,01,55,14.60
2009,09,13,01,56,14.60
2009,09,13,01,57,14.60
2009,09,13,01,58,14.50
2009,09,13,01,59,14.50
2009,09,13,02,00,14.50
2009,09,13,02,01,14.50
2009,09,13,02,02,14.50
2009,09,13,02,03,14.50
2009,09,13,02,04,14.40
2009,09,13,02,05,14.40
2009,09,13,02,06,14.40
2009,09,13,02,07,14.40
2009,09,13,02,08,14.40
2009,09,13,02,09,14.40
2009,09,13,02,10,14.40
2009,09,13,02,11,14.40
2009,09,13,02,12,14.40
2009,09,13,02,13,14.40
2009,09,13,02,14,14.30
2009,09,13,02,15,14.30
2009,09,13,02,16,14.30
2009,09,13,02,17,14.30
2009,09,13,02,18,14.30
2009,09,13,02,19,14.30
2009,09,13,02,20,14.30
2009,09,13,02,21,14.20
2009,09,13,02,22,14.20
2009,09,13,02,23,14.20
2009,09,13,02,24,14.20
2009,09,13,02,25,14.20
2009,09,13,02,26,14.20
2009,09,13,02,27,14.10
2009,09,13,02,28,14.10
2009,09,13,02,29,14.10
2009,09,13,02,30,14.10
2009,09,13,02,31,14.00
2009,09,13,02,32,14.00
2009,09,13,02,33,14.00
2009,09,13,02,34,14.00
2009,09,13,02,35,13.90
2009,09,13,02,36,13.90
2009,09,13,02,37,13.90
2009,09,13,02,38,13.90
2009,09,13,02,39,13.80
2009,09,13,02,40,13.80
2009,09,13,02,41,13.80
2009,09,13,02,42,13.80
2009,09,13,02,43,13.80
2009,09,13,02,44,13.80
2009,09,13,02,45,13.80
2009,09,13,02,46,13.80
2009,09,13,02,47,13.70
2009,09,13,02,48,13.70
2009,09,13,02,49,13.70
2009,09,13,02,50,13.70
2009,09,13,02,51,13.70
2009,09,13,02,52,13.70
2009,09,13,02,53,13.60
2009,09,13,02,54,13.60
2009,09,13,02,55,13.60
2009,09,13,02,56,13.60
2009,09,13,02,57,13.60
2009,09,13,02,58,13.60
2009,09,13,02,59,13.60
2009,09,13,03,00,13.60
2009,09,13,03,01,13.60
2009,09,13,03,02,13.60
2009,09,13,03,03,13.60
2009,09,13,03,04,13.60
2009,09,13,03,05,13.60
2009,09,13,03,06,13.60
2009,09,13,03,07,13.70
2009,09,13,03,08,13.70
2009,09,13,03,09,13.70
2009,09,13,03,10,13.70
2009,09,13,03,11,13.70
2009,09,13,03,12,13.70
2009,09,13,03,13,13.70
2009,09,13,03,14,13.70
2009,09,13,03,15,13.70
2009,09,13,03,16,13.70
2009,09,13,03,17,13.60
2009,09,13,03,18,13.60
2009,09,13,03,19,13.60
2009,09,13,03,20,13.60
2009,09,13,03,21,13.60
2009,09,13,03,22,13.60
2009,09,13,03,23,13.60
2009,09,13,03,24,13.60
2009,09,13,03,25,13.60
2009,09,13,03,26,13.60
2009,09,13,03,27,13.60
2009,09,13,03,28,13.50
2009,09,13,03,29,13.50
2009,09,13,03,30,13.50
2009,09,13,03,31,13.50
2009,09,13,03,32,13.40
2009,09,13,03,33,13.40
2009,09,13,03,34,13.40
2009,09,13,03,35,13.40
2009,09,13,03,36,13.40
2009,09,13,03,37,13.40
2009,09,13,03,38,13.40
2009,09,13,03,39,13.40
2009,09,13,03,40,13.30
2009,09,13,03,41,13.30
2009,09,13,03,42,13.30
2009,09,13,03,43,13.30
2009,09,13,03,44,13.30
2009,09,13,03,45,13.30
2009,09,13,03,46,13.30
2009,09,13,03,47,13.30
2009,09,13,03,48,13.30
2009,09,13,03,49,13.30
2009,09,13,03,50,13.30
2009,09,13,03,51,13.30
2009,09,13,03,52,13.30
2009,09,13,03,53,13.30
2009,09,13,03,54,13.30
2009,09,13,03,55,13.30
2009,09,13,03,56,13.30
2009,09,13,03,57,13.30
2009,09,13,03,58,13.30
2009,09,13,03,59,13.30
2009,09,13,04,00,13.30
2009,09,13,04,01,13.30
2009,09,13,04,02,13.30
2009,09,13,04,03,13.30
2009,09,13,04,04,13.30
2009,09,13,04,05,13.30
2009,09,13,04,06,13.30
2009,09,13,04,07,13.30
2009,09,13,04,08,13.30
2009,09,13,04,09,13.30
2009,09,13,04,10,13.30
2009,09,13,04,11,13.30
2009,09,13,04,12,13.30
2009,09,13,04,13,13.30
2009,09,13,04,14,13.30
2009,09,13,04,15,13.30
2009,09,13,04,16,13.30
2009,09,13,04,17,13.30
2009,09,13,04,18,13.30
2009,09,13,04,19,13.40
2009,09,13,04,20,13.40
2009,09,13,04,21,13.50
2009,09,13,04,22,13.60
2009,09,13,04,23,13.70
2009,09,13,04,24,13.80
2009,09,13,04,25,13.90
2009,09,13,04,26,14.00
2009,09,13,04,27,14.10
2009,09,13,04,28,14.10
2009,09,13,04,29,14.20
2009,09,13,04,30,14.20
2009,09,13,04,31,14.20
2009,09,13,04,32,14.20
2009,09,13,04,33,14.10
2009,09,13,04,34,14.10
2009,09,13,04,35,14.10
2009,09,13,04,36,14.10
2009,09,13,04,37,14.10
2009,09,13,04,38,14.00
2009,09,13,04,39,13.90
2009,09,13,04,40,13.90
2009,09,13,04,41,13.90
2009,09,13,04,42,13.80
2009,09,13,04,43,13.80
2009,09,13,04,44,13.80
2009,09,13,04,45,13.80
2009,09,13,04,46,13.70
2009,09,13,04,47,13.70
2009,09,13,04,48,13.70
2009,09,13,04,49,13.70
2009,09,13,04,50,13.70
2009,09,13,04,51,13.70
2009,09,13,04,52,13.70
2009,09,13,04,53,13.70
2009,09,13,04,54,13.60
2009,09,13,04,55,13.60
2009,09,13,04,56,13.60
2009,09,13,04,57,13.60
2009,09,13,04,58,13.60
2009,09,13,04,59,13.60
2009,09,13,05,00,13.60
2009,09,13,05,01,13.60
2009,09,13,05,02,13.60
2009,09,13,05,03,13.60
2009,09,13,05,04,13.60
2009,09,13,05,05,13.60
2009,09,13,05,06,13.60
2009,09,13,05,07,13.60
2009,09,13,05,08,13.60
2009,09,13,05,09,13.60
2009,09,13,05,10,13.60
2009,09,13,05,11,13.60
2009,09,13,05,12,13.60
2009,09,13,05,13,13.60
2009,09,13,05,14,13.50
2009,09,13,05,15,13.50
2009,09,13,05,16,13.50
2009,09,13,05,17,13.50
2009,09,13,05,18,13.50
2009,09,13,05,19,13.50
2009,09,13,05,20,13.50
2009,09,13,05,21,13.50
2009,09,13,05,22,13.50
2009,09,13,05,23,13.50
2009,09,13,05,24,13.50
2009,09,13,05,25,13.50
2009,09,13,05,26,13.40
2009,09,13,05,27,13.40
2009,09,13,05,28,13.40
2009,09,13,05,29,13.40
2009,09,13,05,30,13.40
2009,09,13,05,31,13.40
2009,09,13,05,32,13.40
2009,09,13,05,33,13.40
2009,09,13,05,34,13.40
2009,09,13,05,35,13.40
2009,09,13,05,36,13.40
2009,09,13,05,37,13.40
2009,09,13,05,38,13.40
2009,09,13,05,39,13.40
2009,09,13,05,40,13.30
2009,09,13,05,41,13.30
2009,09,13,05,42,13.30
2009,09,13,05,43,13.30
2009,09,13,05,44,13.30
2009,09,13,05,45,13.30
2009,09,13,05,46,13.30
2009,09,13,05,47,13.30
2009,09,13,05,48,13.30
2009,09,13,05,49,13.30
2009,09,13,05,50,13.30
2009,09,13,05,51,13.30
2009,09,13,05,52,13.30
2009,09,13,05,53,13.30
2009,09,13,05,54,13.30
2009,09,13,05,55,13.30
2009,09,13,05,56,13.30
2009,09,13,05,57,13.30
2009,09,13,05,58,13.30
2009,09,13,05,59,13.20
2009,09,13,06,00,13.20
2009,09,13,06,01,13.20
2009,09,13,06,02,13.20
2009,09,13,06,03,13.20
2009,09,13,06,04,13.20
2009,09,13,06,05,13.20
2009,09,13,06,06,13.20
2009,09,13,06,07,13.20
2009,09,13,06,08,13.20
2009,09,13,06,09,13.20
2009,09,13,06,10,13.20
2009,09,13,06,11,13.20
2009,09,13,06,12,13.10
2009,09,13,06,13,13.10
2009,09,13,06,14,13.10
2009,09,13,06,15,13.10
2009,09,13,06,16,13.10
2009,09,13,06,17,13.10
2009,09,13,06,18,13.10
2009,09,13,06,19,13.10
2009,09,13,06,20,13.10
2009,09,13,06,21,13.10
2009,09,13,06,22,13.00
2009,09,13,06,23,13.00
2009,09,13,06,24,13.00
2009,09,13,06,25,13.00
2009,09,13,06,26,13.00
2009,09,13,06,27,12.90
2009,09,13,06,28,12.90
2009,09,13,06,29,12.90
2009,09,13,06,30,12.90
2009,09,13,06,31,12.90
2009,09,13,06,32,12.90
2009,09,13,06,33,12.90
2009,09,13,06,34,12.90
2009,09,13,06,35,12.90
2009,09,13,06,36,12.80
2009,09,13,06,37,12.80
2009,09,13,06,38,12.80
2009,09,13,06,39,12.80
2009,09,13,06,40,12.80
2009,09,13,06,41,12.80
2009,09,13,06,42,12.80
2009,09,13,06,43,12.70
2009,09,13,06,44,12.70
2009,09,13,06,45,12.70
2009,09,13,06,46,12.70
2009,09,13,06,47,12.70
2009,09,13,06,48,12.70
2009,09,13,06,49,12.70
2009,09,13,06,50,12.70
2009,09,13,06,51,12.70
2009,09,13,06,52,12.70
2009,09,13,06,53,12.60
2009,09,13,06,54,12.60
2009,09,13,06,55,12.60
2009,09,13,06,56,12.60
2009,09,13,06,57,12.60
2009,09,13,06,58,12.60
2009,09,13,06,59,12.60
2009,09,13,07,00,12.70
2009,09,13,07,01,12.70
2009,09,13,07,02,12.70
2009,09,13,07,03,12.70
2009,09,13,07,04,12.70
2009,09,13,07,05,12.80
2009,09,13,07,06,12.80
2009,09,13,07,07,12.80
2009,09,13,07,08,12.80
2009,09,13,07,09,12.80
2009,09,13,07,10,12.80
2009,09,13,07,11,12.80
2009,09,13,07,12,12.80
2009,09,13,07,13,12.80
2009,09,13,07,14,12.80
2009,09,13,07,15,12.80
2009,09,13,07,16,12.80
2009,09,13,07,17,12.80
2009,09,13,07,18,12.80
2009,09,13,07,19,12.80
2009,09,13,07,20,12.80
2009,09,13,07,21,12.80
2009,09,13,07,22,12.80
2009,09,13,07,23,12.80
2009,09,13,07,24,12.90
2009,09,13,07,25,12.90
2009,09,13,07,26,12.90
2009,09,13,07,27,12.90
2009,09,13,07,28,12.90
2009,09,13,07,29,12.90
2009,09,13,07,30,12.90
2009,09,13,07,31,13.00
2009,09,13,07,32,13.00
2009,09,13,07,33,13.00
2009,09,13,07,34,13.10
2009,09,13,07,35,13.10
2009,09,13,07,36,13.10
2009,09,13,07,37,13.20
2009,09,13,07,38,13.20
2009,09,13,07,39,13.20
2009,09,13,07,40,13.30
2009,09,13,07,41,13.30
2009,09,13,07,42,13.30
2009,09,13,07,43,13.40
2009,09,13,07,44,13.40
2009,09,13,07,45,13.50
2009,09,13,07,46,13.50
2009,09,13,07,47,13.60
2009,09,13,07,48,13.70
2009,09,13,07,49,13.70
2009,09,13,07,50,13.70
2009,09,13,07,51,13.80
2009,09,13,07,52,13.80
2009,09,13,07,53,13.80
2009,09,13,07,54,13.90
2009,09,13,07,55,14.00
2009,09,13,07,56,14.00
2009,09,13,07,57,14.10
2009,09,13,07,58,14.20
2009,09,13,07,59,14.20
2009,09,13,08,00,14.30
2009,09,13,08,01,14.30
2009,09,13,08,02,14.30
2009,09,13,08,03,14.40
2009,09,13,08,04,14.50
2009,09,13,08,05,14.50
2009,09,13,08,06,14.60
2009,09,13,08,07,14.70
2009,09,13,08,08,14.70
2009,09,13,08,09,14.80
2009,09,13,08,10,14.80
2009,09,13,08,11,14.80
2009,09,13,08,12,14.90
2009,09,13,08,13,15.00
2009,09,13,08,14,15.00
2009,09,13,08,15,15.00
2009,09,13,08,16,15.00
2009,09,13,08,17,15.00
2009,09,13,08,18,15.10
2009,09,13,08,19,15.20
2009,09,13,08,20,15.20
2009,09,13,08,21,15.30
2009,09,13,08,22,15.40
2009,09,13,08,23,15.40
2009,09,13,08,24,15.50
2009,09,13,08,25,15.50
2009,09,13,08,26,15.60
2009,09,13,08,27,15.60
2009,09,13,08,28,15.70
2009,09,13,08,29,15.70
2009,09,13,08,30,15.80
2009,09,13,08,31,15.80
2009,09,13,08,32,15.80
2009,09,13,08,33,15.90
2009,09,13,08,34,16.00
2009,09,13,08,35,16.10
2009,09,13,08,36,16.20
2009,09,13,08,37,16.30
2009,09,13,08,38,16.30
2009,09,13,08,39,16.40
2009,09,13,08,40,16.40
2009,09,13,08,41,16.50
2009,09,13,08,42,16.50
2009,09,13,08,43,16.60
2009,09,13,08,44,16.60
2009,09,13,08,45,16.70
2009,09,13,08,46,16.80
2009,09,13,08,47,16.90
2009,09,13,08,48,16.90
2009,09,13,08,49,17.00
2009,09,13,08,50,17.10
2009,09,13,08,51,17.20
2009,09,13,08,52,17.30
2009,09,13,08,53,17.30
2009,09,13,08,54,17.30
2009,09,13,08,55,17.40
2009,09,13,08,56,17.40
2009,09,13,08,57,17.40
2009,09,13,08,58,17.40
2009,09,13,08,59,17.40
2009,09,13,09,00,17.40
2009,09,13,09,01,17.30
2009,09,13,09,02,17.30
2009,09,13,09,03,17.30
2009,09,13,09,04,17.30
2009,09,13,09,05,17.30
2009,09,13,09,06,17.30
2009,09,13,09,07,17.30
2009,09,13,09,08,17.30
2009,09,13,09,09,17.30
2009,09,13,09,10,17.30
2009,09,13,09,11,17.30
2009,09,13,09,12,17.30
2009,09,13,09,13,17.30
2009,09,13,09,14,17.30
2009,09,13,09,15,17.30
2009,09,13,09,16,17.30
2009,09,13,09,17,17.30
2009,09,13,09,18,17.30
2009,09,13,09,19,17.40
2009,09,13,09,20,17.40
2009,09,13,09,21,17.40
2009,09,13,09,22,17.40
2009,09,13,09,23,17.50
2009,09,13,09,24,17.50
2009,09,13,09,25,17.50
2009,09,13,09,26,17.60
2009,09,13,09,27,17.60
2009,09,13,09,28,17.60
2009,09,13,09,29,17.60
2009,09,13,09,30,17.60
2009,09,13,09,31,17.70
2009,09,13,09,32,17.70
2009,09,13,09,33,17.70
2009,09,13,09,34,17.70
2009,09,13,09,35,17.80
2009,09,13,09,36,17.80
2009,09,13,09,37,17.80
2009,09,13,09,38,17.80
2009,09,13,09,39,17.90
2009,09,13,09,40,17.90
2009,09,13,09,41,17.90
2009,09,13,09,42,17.90
2009,09,13,09,43,18.00
2009,09,13,09,44,18.00
2009,09,13,09,45,18.00
2009,09,13,09,46,18.10
2009,09,13,09,47,18.10
2009,09,13,09,48,18.10
2009,09,13,09,49,18.20
2009,09,13,09,50,18.20
2009,09,13,09,51,18.30
2009,09,13,09,52,18.30
2009,09,13,09,53,18.30
2009,09,13,09,54,18.30
2009,09,13,09,55,18.30
2009,09,13,09,56,18.30
2009,09,13,09,57,18.40
2009,09,13,09,58,18.40
2009,09,13,09,59,18.40
2009,09,13,10,00,18.40
2009,09,13,10,01,18.40
2009,09,13,10,02,18.40
2009,09,13,10,03,18.40
2009,09,13,10,04,18.40
2009,09,13,10,05,18.40
2009,09,13,10,06,18.40
2009,09,13,10,07,18.40
2009,09,13,10,08,18.40
2009,09,13,10,09,18.40
2009,09,13,10,10,18.40
2009,09,13,10,11,18.50
2009,09,13,10,12,18.50
2009,09,13,10,13,18.50
2009,09,13,10,14,18.60
2009,09,13,10,15,18.60
2009,09,13,10,16,18.60
2009,09,13,10,17,18.70
2009,09,13,10,18,18.70
2009,09,13,10,19,18.80
2009,09,13,10,20,18.80
2009,09,13,10,21,18.80
2009,09,13,10,22,18.80
2009,09,13,10,23,18.90
2009,09,13,10,24,18.90
2009,09,13,10,25,19.00
2009,09,13,10,26,19.00
2009,09,13,10,27,19.10
2009,09,13,10,28,19.20
2009,09,13,10,29,19.20
2009,09,13,10,30,19.20
2009,09,13,10,31,19.20
2009,09,13,10,32,19.30
2009,09,13,10,33,19.30
2009,09,13,10,34,19.20
2009,09,13,10,35,19.20
2009,09,13,10,36,19.20
2009,09,13,10,37,19.20
2009,09,13,10,38,19.20
2009,09,13,10,39,19.20
2009,09,13,10,40,19.20
2009,09,13,10,41,19.20
2009,09,13,10,42,19.20
2009,09,13,10,43,19.20
2009,09,13,10,44,19.20
2009,09,13,10,45,19.20
2009,09,13,10,46,19.30
2009,09,13,10,47,19.30
2009,09,13,10,48,19.40
2009,09,13,10,49,19.40
2009,09,13,10,50,19.50
2009,09,13,10,51,19.50
2009,09,13,10,52,19.60
2009,09,13,10,53,19.60
2009,09,13,10,54,19.70
2009,09,13,10,55,19.70
2009,09,13,10,56,19.70
2009,09,13,10,57,19.80
2009,09,13,10,58,19.80
2009,09,13,10,59,19.80
2009,09,13,11,00,19.90
2009,09,13,11,01,19.90
2009,09,13,11,02,19.90
2009,09,13,11,03,19.90
2009,09,13,11,04,20.00
2009,09,13,11,05,20.00
2009,09,13,11,06,20.00
2009,09,13,11,07,20.00
2009,09,13,11,08,20.10
2009,09,13,11,09,20.10
2009,09,13,11,10,20.10
2009,09,13,11,11,20.10
2009,09,13,11,12,20.20
2009,09,13,11,13,20.20
2009,09,13,11,14,20.20
2009,09,13,11,15,20.20
2009,09,13,11,16,20.20
2009,09,13,11,17,20.20
2009,09,13,11,18,20.20
2009,09,13,11,19,20.30
2009,09,13,11,20,20.30
2009,09,13,11,21,20.30
2009,09,13,11,22,20.30
2009,09,13,11,23,20.30
2009,09,13,11,24,20.30
2009,09,13,11,25,20.30
2009,09,13,11,26,20.30
2009,09,13,11,27,20.30
2009,09,13,11,28,20.30
2009,09,13,11,29,20.30
2009,09,13,11,30,20.40
2009,09,13,11,31,20.40
2009,09,13,11,32,20.40
2009,09,13,11,33,20.40
2009,09,13,11,34,20.40
2009,09,13,11,35,20.40
2009,09,13,11,36,20.40
2009,09,13,11,37,20.50
2009,09,13,11,38,20.50
2009,09,13,11,39,20.60
2009,09,13,11,40,20.50
2009,09,13,11,41,20.50
2009,09,13,11,42,20.50
2009,09,13,11,43,20.50
2009,09,13,11,44,20.50
2009,09,13,11,45,20.50
2009,09,13,11,46,20.50
2009,09,13,11,47,20.60
2009,09,13,11,48,20.60
2009,09,13,11,49,20.60
2009,09,13,11,50,20.70
2009,09,13,11,51,20.70
2009,09,13,11,52,20.70
2009,09,13,11,53,20.70
2009,09,13,11,54,20.70
2009,09,13,11,55,20.80
2009,09,13,11,56,20.80
2009,09,13,11,57,20.90
2009,09,13,11,58,20.90
2009,09,13,11,59,20.90
2009,09,13,12,00,21.00
2009,09,13,12,01,21.00
2009,09,13,12,02,21.10
2009,09,13,12,03,21.10
2009,09,13,12,04,21.10
2009,09,13,12,05,21.10
2009,09,13,12,06,21.10
2009,09,13,12,07,21.10
2009,09,13,12,08,21.10
2009,09,13,12,09,21.20
2009,09,13,12,10,21.30
2009,09,13,12,11,21.30
2009,09,13,12,12,21.40
2009,09,13,12,13,21.40
2009,09,13,12,14,21.50
2009,09,13,12,15,21.50
2009,09,13,12,16,21.60
2009,09,13,12,17,21.60
2009,09,13,12,18,21.70
2009,09,13,12,19,21.70
2009,09,13,12,20,21.80
2009,09,13,12,21,21.80
2009,09,13,12,22,21.90
2009,09,13,12,23,22.00
2009,09,13,12,24,22.00
2009,09,13,12,25,22.10
2009,09,13,12,26,22.10
2009,09,13,12,27,22.10
2009,09,13,12,28,22.20
2009,09,13,12,29,22.20
2009,09,13,12,30,22.20
2009,09,13,12,31,22.20
2009,09,13,12,32,22.20
2009,09,13,12,33,22.20
2009,09,13,12,34,22.20
2009,09,13,12,35,22.30
2009,09,13,12,36,22.30
2009,09,13,12,37,22.40
2009,09,13,12,38,22.40
2009,09,13,12,39,22.50
2009,09,13,12,40,22.50
2009,09,13,12,41,22.60
2009,09,13,12,42,22.60
2009,09,13,12,43,22.60
2009,09,13,12,44,22.60
2009,09,13,12,45,22.70
2009,09,13,12,46,22.70
2009,09,13,12,47,22.70
2009,09,13,12,48,22.70
2009,09,13,12,49,22.70
2009,09,13,12,50,22.70
2009,09,13,12,51,22.70
2009,09,13,12,52,22.70
2009,09,13,12,53,22.80
2009,09,13,12,54,22.90
2009,09,13,12,55,22.90
2009,09,13,12,56,22.90
2009,09,13,12,57,22.90
2009,09,13,12,58,22.80
2009,09,13,12,59,22.80
2009,09,13,13,00,22.70
2009,09,13,13,01,22.70
2009,09,13,13,02,22.60
2009,09,13,13,03,22.60
2009,09,13,13,04,22.40
2009,09,13,13,05,22.20
2009,09,13,13,06,22.00
2009,09,13,13,07,21.80
2009,09,13,13,08,21.80
2009,09,13,13,09,21.70
2009,09,13,13,10,21.60
2009,09,13,13,11,21.50
2009,09,13,13,12,21.40
2009,09,13,13,13,21.30
2009,09,13,13,14,21.30
2009,09,13,13,15,21.20
2009,09,13,13,16,21.20
2009,09,13,13,17,21.20
2009,09,13,13,18,21.30
2009,09,13,13,19,21.30
2009,09,13,13,20,21.30
2009,09,13,13,21,21.30
2009,09,13,13,22,21.30
2009,09,13,13,23,21.30
2009,09,13,13,24,21.30
2009,09,13,13,25,21.30
2009,09,13,13,26,21.20
2009,09,13,13,27,21.20
2009,09,13,13,28,21.30
2009,09,13,13,29,21.30
2009,09,13,13,30,21.40
2009,09,13,13,31,21.40
2009,09,13,13,32,21.40
2009,09,13,13,33,21.50
2009,09,13,13,34,21.60
2009,09,13,13,35,21.60
2009,09,13,13,36,21.60
2009,09,13,13,37,21.60
2009,09,13,13,38,21.60
2009,09,13,13,39,21.70
2009,09,13,13,40,21.70
2009,09,13,13,41,21.80
2009,09,13,13,42,21.80
2009,09,13,13,43,21.90
2009,09,13,13,44,21.90
2009,09,13,13,45,22.00
2009,09,13,13,46,22.00
2009,09,13,13,47,22.10
2009,09,13,13,48,22.10
2009,09,13,13,49,22.10
2009,09,13,13,50,22.10
2009,09,13,13,51,22.00
2009,09,13,13,52,22.00
2009,09,13,13,53,21.90
2009,09,13,13,54,21.90
2009,09,13,13,55,21.90
2009,09,13,13,56,21.90
2009,09,13,13,57,21.90
2009,09,13,13,58,21.90
2009,09,13,13,59,21.80
2009,09,13,14,00,21.80
2009,09,13,14,01,21.90
2009,09,13,14,02,21.90
2009,09,13,14,03,21.90
2009,09,13,14,04,21.90
2009,09,13,14,05,22.00
2009,09,13,14,06,21.90
2009,09,13,14,07,21.80
2009,09,13,14,08,21.80
2009,09,13,14,09,21.80
2009,09,13,14,10,21.70
2009,09,13,14,11,21.60
2009,09,13,14,12,21.60
2009,09,13,14,13,21.60
2009,09,13,14,14,21.60
2009,09,13,14,15,21.60
2009,09,13,14,16,21.60
2009,09,13,14,17,21.50
2009,09,13,14,18,21.40
2009,09,13,14,19,21.30
2009,09,13,14,20,21.20
2009,09,13,14,21,21.20
2009,09,13,14,22,21.20
2009,09,13,14,23,21.20
2009,09,13,14,24,21.10
2009,09,13,14,25,21.10
2009,09,13,14,26,21.10
2009,09,13,14,27,21.10
2009,09,13,14,28,21.20
2009,09,13,14,29,21.40
2009,09,13,14,30,21.50
2009,09,13,14,31,21.50
2009,09,13,14,32,21.60
2009,09,13,14,33,21.60
2009,09,13,14,34,21.70
2009,09,13,14,35,21.70
2009,09,13,14,36,21.80
2009,09,13,14,37,21.70
2009,09,13,14,38,21.70
2009,09,13,14,39,21.70
2009,09,13,14,40,21.80
2009,09,13,14,41,21.80
2009,09,13,14,42,21.80
2009,09,13,14,43,21.80
2009,09,13,14,44,21.80
2009,09,13,14,45,21.80
2009,09,13,14,46,21.90
2009,09,13,14,47,22.00
2009,09,13,14,48,22.00
2009,09,13,14,49,22.10
2009,09,13,14,50,22.10
2009,09,13,14,51,22.20
2009,09,13,14,52,22.30
2009,09,13,14,53,22.30
2009,09,13,14,54,22.30
2009,09,13,14,55,22.40
2009,09,13,14,56,22.40
2009,09,13,14,57,22.40
2009,09,13,14,58,22.50
2009,09,13,14,59,22.50
2009,09,13,15,00,22.60
2009,09,13,15,01,22.60
2009,09,13,15,02,22.70
2009,09,13,15,03,22.60
2009,09,13,15,04,22.70
2009,09,13,15,05,22.70
2009,09,13,15,06,22.70
2009,09,13,15,07,22.70
2009,09,13,15,08,22.70
2009,09,13,15,09,22.70
2009,09,13,15,10,22.80
2009,09,13,15,11,22.80
2009,09,13,15,12,22.80
2009,09,13,15,13,22.90
2009,09,13,15,14,22.90
2009,09,13,15,15,23.00
2009,09,13,15,16,23.10
2009,09,13,15,17,23.10
2009,09,13,15,18,23.20
2009,09,13,15,19,23.30
2009,09,13,15,20,23.30
2009,09,13,15,21,23.40
2009,09,13,15,22,23.40
2009,09,13,15,23,23.40
2009,09,13,15,24,23.40
2009,09,13,15,25,23.50
2009,09,13,15,26,23.60
2009,09,13,15,27,23.60
2009,09,13,15,28,23.70
2009,09,13,15,29,23.80
2009,09,13,15,30,23.90
2009,09,13,15,31,23.90
2009,09,13,15,32,24.00
2009,09,13,15,33,24.10
2009,09,13,15,34,24.10
2009,09,13,15,35,24.20
2009,09,13,15,36,24.20
2009,09,13,15,37,24.20
2009,09,13,15,38,24.30
2009,09,13,15,39,24.30
2009,09,13,15,40,24.40
2009,09,13,15,41,24.40
2009,09,13,15,42,24.40
2009,09,13,15,43,24.50
2009,09,13,15,44,24.50
2009,09,13,15,45,24.60
2009,09,13,15,46,24.60
2009,09,13,15,47,24.60
2009,09,13,15,48,24.50
2009,09,13,15,49,24.60
2009,09,13,15,50,24.60
2009,09,13,15,51,24.60
2009,09,13,15,52,24.60
2009,09,13,15,53,24.70
2009,09,13,15,54,24.60
2009,09,13,15,55,24.60
2009,09,13,15,56,24.60
2009,09,13,15,57,24.60
2009,09,13,15,58,24.70
2009,09,13,15,59,24.70
2009,09,13,16,00,24.80
2009,09,13,16,01,24.80
2009,09,13,16,02,24.80
2009,09,13,16,03,24.80
2009,09,13,16,04,24.80
2009,09,13,16,05,24.90
2009,09,13,16,06,24.90
2009,09,13,16,07,24.90
2009,09,13,16,08,24.90
2009,09,13,16,09,24.90
2009,09,13,16,10,24.90
2009,09,13,16,11,24.90
2009,09,13,16,12,24.90
2009,09,13,16,13,24.90
2009,09,13,16,14,24.90
2009,09,13,16,15,24.90
2009,09,13,16,16,24.80
2009,09,13,16,17,24.70
2009,09,13,16,18,24.70
2009,09,13,16,19,24.70
2009,09,13,16,20,24.70
2009,09,13,16,21,24.80
2009,09,13,16,22,24.80
2009,09,13,16,23,24.80
2009,09,13,16,24,24.80
2009,09,13,16,25,24.90
2009,09,13,16,26,24.90
2009,09,13,16,27,24.90
2009,09,13,16,28,24.90
2009,09,13,16,29,24.90
2009,09,13,16,30,24.90
2009,09,13,16,31,24.90
2009,09,13,16,32,24.90
2009,09,13,16,33,24.90
2009,09,13,16,34,25.00
2009,09,13,16,35,25.00
2009,09,13,16,36,25.00
2009,09,13,16,37,25.10
2009,09,13,16,38,25.10
2009,09,13,16,39,25.20
2009,09,13,16,40,25.20
2009,09,13,16,41,25.30
2009,09,13,16,42,25.30
2009,09,13,16,43,25.30
2009,09,13,16,44,25.40
2009,09,13,16,45,25.40
2009,09,13,16,46,25.40
2009,09,13,16,47,25.40
2009,09,13,16,48,25.50
2009,09,13,16,49,25.50
2009,09,13,16,50,25.60
2009,09,13,16,51,25.60
2009,09,13,16,52,25.70
2009,09,13,16,53,25.70
2009,09,13,16,54,25.80
2009,09,13,16,55,25.90
2009,09,13,16,56,25.90
2009,09,13,16,57,25.90
2009,09,13,16,58,26.00
2009,09,13,16,59,26.10
2009,09,13,17,00,26.10
2009,09,13,17,01,26.10
2009,09,13,17,02,26.20
2009,09,13,17,03,26.20
2009,09,13,17,04,26.20
2009,09,13,17,05,26.20
2009,09,13,17,06,26.20
2009,09,13,17,07,26.20
2009,09,13,17,08,26.20
2009,09,13,17,09,26.20
2009,09,13,17,10,26.30
2009,09,13,17,11,26.30
2009,09,13,17,12,26.30
2009,09,13,17,13,26.30
2009,09,13,17,14,26.30
2009,09,13,17,15,26.40
2009,09,13,17,16,26.40
2009,09,13,17,17,26.40
2009,09,13,17,18,26.30
2009,09,13,17,19,26.30